Weather History for Camarillo, CA

Change the Weather History Date:

Monday, June 24, 2013

  Actual Average Record
Temperature  
Mean Temperature 69 °F 65 °F  
Max Temperature 76 °F 74 °F 85 °F (1976)
Min Temperature 61 °F 57 °F 47 °F (1963)
Degree Days  
Heating Degree Days 0 1  
Month to date heating degree days 0 36  
Since 1 June heating degree days 0 36  
Since 1 July heating degree days 1424 1979  
Cooling Degree Days 4 1  
Month to date cooling degree days 85 12  
Year to date cooling degree days 191 43  
Since 1 June cooling degree days 85 12  
Growing Degree Days 18 (Base 50)    
Moisture  
Dew Point 57 °F    
Average Humidity 66    
Maximum Humidity 78    
Minimum Humidity 54    
Precipitation  
Precipitation 0.00 in 0.00 in 0.09 in (1988)
Month to date precipitation T 0.05  
Year to date precipitation 2.15 10.98  
Since 1 July precipitation 4.86 15.22  
Sea Level Pressure  
Sea Level Pressure 29.92 in    
Wind  
Wind Speed 5 mph (SW)    
Max Wind Speed 15 mph    
Max Gust Speed 18 mph    
Visibility 10 miles    
Events      
T = Trace of Precipitation, MM = Missing Value Source: NWS Daily Summary

Daily Weather History Graph

Daily Weather History Graph

Search for Another Location

Airport:

Trip Planner

Search our weather history database for the weather conditions in past years. The results will help you decide how hot, cold, wet, or windy it might be!

Date:

Astronomy

Jun. 24, 2013 Rise Set
Actual Time 5:45 AM PDT 8:11 PM PDT
Civil Twilight 5:16 AM PDT 8:41 PM PDT
Nautical Twilight 4:40 AM PDT 9:17 PM PDT
Astronomical Twilight 4:00 AM PDT 9:57 PM PDT
Moon 9:24 PM PDT (6/24) 7:14 AM PDT (6/24)
Length of Visible Light 15h 24m
Length of Day
14h 26m
Full, 97% of the Moon is Illuminated
Jun 24
Full
Jun 29
Last Quarter
Jul 8
New
Jul 15
First Quarter
Jul 22
Full

Hourly Weather History & Observations

Time (PDT) Temp. Dew Point Humidity Pressure Visibility Wind Dir Wind Speed Gust Speed Precip Events Conditions
12:55 AM 64.0 °F 55.9 °F 75% 29.85 in 10.0 mi Calm Calm - N/A   Clear
1:55 AM 62.1 °F 54.0 °F 75% 29.86 in 10.0 mi Calm Calm - N/A   Clear
2:55 AM 62.1 °F 54.0 °F 75% 29.86 in 10.0 mi Calm Calm - N/A   Clear
3:55 AM 61.0 °F 53.1 °F 75% 29.86 in 10.0 mi NE 4.6 mph - N/A   Clear
4:55 AM 61.0 °F 54.0 °F 78% 29.87 in 10.0 mi Calm Calm - N/A   Mostly Cloudy
5:07 AM 60.8 °F 53.6 °F 77% 29.85 in 10.0 mi Calm Calm - N/A   Scattered Clouds
5:33 AM 62.6 °F 53.6 °F 72% 29.85 in 10.0 mi Calm Calm - N/A   Mostly Cloudy
5:55 AM 63.0 °F 55.0 °F 75% 29.88 in 10.0 mi Calm Calm - N/A   Overcast
6:39 AM 64.4 °F 55.4 °F 73% 29.87 in 10.0 mi Calm Calm - N/A   Scattered Clouds
6:55 AM 64.0 °F 55.0 °F 73% 29.90 in 10.0 mi Calm Calm - N/A   Scattered Clouds
7:07 AM 64.4 °F 55.4 °F 73% 29.88 in 10.0 mi Calm Calm - N/A   Mostly Cloudy
7:55 AM 66.9 °F 55.9 °F 68% 29.93 in 10.0 mi Calm Calm - N/A   Overcast
8:55 AM 69.1 °F 57.0 °F 65% 29.95 in 10.0 mi SW 4.6 mph - N/A   Overcast
9:55 AM 70.0 °F 57.0 °F 63% 29.95 in 10.0 mi Calm Calm - N/A   Overcast
10:55 AM 73.0 °F 57.0 °F 57% 29.95 in 10.0 mi SSW 6.9 mph - N/A   Scattered Clouds
11:55 AM 75.0 °F 57.0 °F 53% 29.95 in 10.0 mi SSW 11.5 mph 17.3 mph N/A   Mostly Cloudy
12:55 PM 73.9 °F 57.9 °F 57% 29.96 in 10.0 mi SSW 12.7 mph - N/A   Overcast
1:55 PM 73.9 °F 57.9 °F 57% 29.95 in 10.0 mi SW 13.8 mph - N/A   Overcast
2:55 PM 75.0 °F 59.0 °F 57% 29.95 in 10.0 mi SW 12.7 mph - N/A   Overcast
3:55 PM 73.0 °F 57.9 °F 59% 29.94 in 10.0 mi SW 9.2 mph - N/A   Overcast
4:55 PM 73.0 °F 57.0 °F 57% 29.94 in 10.0 mi SW 10.4 mph - N/A   Overcast
5:55 PM 73.0 °F 57.0 °F 57% 29.94 in 10.0 mi SW 6.9 mph - N/A   Overcast
6:55 PM 72.0 °F 57.9 °F 61% 29.94 in 10.0 mi SW 6.9 mph - N/A   Overcast
7:55 PM 70.0 °F 59.0 °F 68% 29.94 in 10.0 mi SSW 3.5 mph - N/A   Overcast
8:55 PM 69.1 °F 60.1 °F 73% 29.94 in 10.0 mi South 4.6 mph - N/A   Scattered Clouds
9:25 PM 69.8 °F 60.8 °F 73% 29.93 in 10.0 mi South 3.5 mph - N/A   Mostly Cloudy
9:44 PM 69.8 °F 60.8 °F 73% 29.94 in 10.0 mi West 4.6 mph - N/A   Overcast
9:55 PM 69.1 °F 59.0 °F 70% 29.96 in 10.0 mi WNW 5.8 mph - N/A   Overcast
10:55 PM 68.0 °F 57.9 °F 70% 29.96 in 10.0 mi West 3.5 mph - N/A   Overcast
11:55 PM 66.9 °F 57.9 °F 73% 29.96 in 10.0 mi WSW 3.5 mph - N/A   Mostly Cloudy